Flag for Czech Republic Weather past 2 weeks in Ostrava, Czech Republic

Now
41 °F

Passing clouds.


Feels Like: 39 °F
Forecast: 40 / 53 °F
Wind: 3 mph from Southwest

Location: Ostrava / Mosnov

Current Time: Oct 26, 2014 at 3:11:48 AM

Latest Report: Oct 26, 2014 at 2:00 AM


Visibility: 6 mi

Pressure: 30.36 "Hg

Humidity: 93%

Dew point: 39 °F

Location of OstravaLocation

Historic Weather in Ostrava — Graph

°F

Ostrava temperature yesterday

Maximum temperature yesterday: 46 °F (at 3:00 PM)
Minimum temperature yesterday: 36 °F (at 12:00 AM)
Average temperature yesterday: 40 °F

Past Weeks' High & Low Weather Summary

 TemperatureHumidityPressure
High71 °F (Oct 11, 3:00 PM)100% (Oct 11, 2:00 AM)30.36 "Hg (Oct 11, 2:00 AM)
Low36 °F (Oct 25, 12:00 AM)56% (Oct 12, 2:00 PM)29.54 "Hg (Oct 22, 3:00 AM)
Average52 °F88%29.98 "Hg
* Reported Oct 11 2:00 AM — Oct 26 2:00 AM, Ostrava, Weather by CustomWeather, © 2014

Note: Actual official high and low records may vary slightly from our data, if they occured in-between our weather recording intervals... More about our weather records

Advertising

Ostrava weather history for previous 24 hours

 ConditionsComfort  
Time TempWeatherWind HumidityBarometerVisibility
2:00 AM
Oct 26
43 °FFog.5 mph90%30.35 "Hg6 mi
1:00 AM43 °FFog.3 mph90%30.34 "Hg6 mi
12:00 AM43 °FFog.3 mph90%30.33 "Hg5 mi
11:00 PM
Oct 25
43 °FFog.5 mph92%30.32 "Hg5 mi
10:00 PM44 °FFog.5 mph90%30.32 "Hg5 mi
9:00 PM43 °FFog.5 mph92%30.31 "Hg4 mi
8:00 PM41 °FFog.3 mph92%30.30 "Hg4 mi
7:00 PM41 °FFog.2 mph91%30.30 "Hg4 mi
6:00 PM40 °FFog.5 mph92%30.28 "Hg4 mi
5:00 PM44 °FFog.5 mph81%30.27 "Hg4 mi
4:00 PM46 °FFog.6 mph78%30.27 "Hg2 mi
3:00 PM46 °FPartly sunny.6 mph81%30.27 "Hg7 mi
2:00 PM45 °FFog.5 mph82%30.28 "Hg6 mi
1:00 PM44 °FFog.6 mph83%30.28 "Hg5 mi
12:00 PM43 °FFog.3 mph85%30.28 "Hg4 mi
11:00 AM42 °FFog.2 mph81%30.28 "Hg5 mi
10:00 AM41 °FFog.N/A79%30.28 "Hg5 mi
9:00 AM41 °FFog.N/A75%30.27 "Hg5 mi
8:00 AM37 °FFog.N/A88%30.27 "Hg4 mi
7:00 AM37 °FFog.1 mph87%30.26 "Hg5 mi
6:00 AM36 °FFog.No wind85%30.26 "Hg3 mi
5:00 AM36 °FFog.N/A86%30.27 "Hg3 mi
4:00 AM36 °FFog.1 mph85%30.27 "Hg4 mi
3:00 AM36 °FFog.2 mph84%30.28 "Hg4 mi
Weather by CustomWeather, © 2014

See weather overviewHow to use our weather pages